SL-19 R/B, 29269

Orbit data source: Space-Track

SL-19 R/B, 29269 is space debris in SSO originally from a launch on Fri, 28 Jul 2006 UTC launched from the Plesetsk Missile And Space Complex (PKMTR). Debris objects in space refer to the collection of defunct objects orbiting the Earth. Examples of debris include non-operational satellites, rocket bodies, and fragments generated from explosions, collisions, or faulty payload assembly.

Loading next visibility...
Identifier
29269, 2006-031B
Orbit
SSO
Country
Flag of CISCIS
Related business
Manufacturer
Khrunichev
Mission
Spacecraft
Bus & Motor
BRIZ, S5.92
Mass
2,370 kg wet, 2,370 kg dry
Launch date (UTC)
2006-07-28 (20 years ago)
Launch vehicle
Unknown
Launch site
Plesetsk Missile And Space Complex (PKMTR)
Object type
Payload
Rocket body
Debris
Shape & HBR
Hex Cyl + 1 Rod, 2.0 m
Radar Cross Section
10.190 m², Large (>1 m²)

Expand to show TLE details & history
Last TLE update: 5 hours ago

TLE from 5 hours ago
0 SL-19 R/B
1 29269U 06031B   26106.68035256  .00001479  00000-0  97887-4 0  9992
2 29269  98.2779  95.3099 0106146 355.0698   4.9471 15.04697917 74758
Epoch: 2026-04-16T16:19Z
TLE epoch observation values (Epoch: 2026-04-16T16:19:42.461Z)
Latitude
-0°
Longitude
5.55856°
Altitude
482.176 km
Speed
7.665 km/s
True Right ascension
06h 21m 14s
True Declination
0° 00' 00"
Sunlit
Object was in daylight at epoch
Visualization orbit readout
Latitude
Unknown
Longitude
Unknown
Altitude
Unknown
Speed
Unknown
Apparent Right ascension
Unknown
Apparent Declination
Unknown
Sunlit
N/A
Visualization observer readout
Local Sidereal Time
04:15:38
Azimuth
Unknown
Elevation
Unknown
Doppler factor
Unknown
Orbital elements
Apogee altitude
622.992 km
Perigee altitude
475.924 km
Semi-major axis
6,927.595 km
Eccentricity
0.01061
Inclination
98.2779°
RAAN
95.3099°
Arg. of periapsis
355.0698°
True anomaly
5.0534°
Mean anomaly
4.9471°
Eccentric anomaly
5.00011°
Mean motion
3.76417 °/min
Orbital period
95.64 mins
BSTAR
0.000097887
Loading maneuver chart data...
Computing Atmospheric mass density...
Loading historical data...
Loading historical data...
Loading historical data...
Loading historical data...
Loading historical data...
Loading historical data...
Loading historical data...
Other satellites on launch #31 in the year 2006 (2006-07-28 UTC)

Documentation

Showing up to 5 results
|